Dewpoint
75 74 74 72 62 58 52 48 48 51 55 56 55 56 56 53 54 55 61 68 69 70 71 73 76 75 74 76 75 74 74 74 74 74 74 73 73 73 74 73 73 75 74 74 74 74 75 75 74
73 72 72 67 57 51 51 49 49 55 57 57 55 57 56 55 57 58 65 68 69 70 71 73 76 75 75 75 76 75 73 73 73 74 74 73 73 74 73 73 73 74 74 74 74 74 74 73 74
72 70 66 61 56 48 49 53 46 53 57 55 53 57 56 56 59 60 65 68 68 69 70 73 77 76 75 75 75 75 74 74 73 73 73 73 73 73 73 73 73 73 73 73 73 73 73 73 73
70 69 66 59 52 51 49 47 47 51 56 54 54 56 58 59 59 63 65 66 68 69 71 75 76 74 75 74 74 73 74 74 74 73 73 73 73 72 71 72 73 73 73 73 72 73 73 73 73
68 66 59 56 50 50 51 50 50 53 54 53 56 54 56 59 60 61 66 68 69 71 73 73 76 76 76 75 74 74 74 74 74 73 73 72 71 71 71 71 71 72 72 73 73 72 72 72 72
62 64 56 48 50 50 49 49 49 52 53 52 56 54 54 60 59 60 65 68 70 71 72 73 75 76 76 75 75 74 74 74 73 73 72 72 72 73 73 72 72 73 72 73 73 73 72 72 72
60 62 54 49 51 52 48 49 52 52 52 52 55 52 53 56 59 61 63 66 68 69 70 72 73 74 75 75 75 75 74 74 73 73 73 74 73 73 73 73 73 73 73 73 73 73 73 73 73
61 62 55 53 54 52 50 49 49 51 54 54 55 52 52 53 57 60 63 64 65 67 70 71 71 73 73 73 75 74 74 74 74 74 74 74 73 73 73 75 74 73 74 73 73 73 73 74 74
60 58 54 51 53 52 53 48 48 51 52 53 54 54 54 54 59 59 60 62 64 66 68 68 70 72 72 72 74 74 74 74 74 74 75 75 71 71 73 73 74 74 74 73 74 74 74 73 74
61 56 54 54 59 51 49 48 47 48 50 52 53 55 53 54 57 58 58 61 62 64 65 67 68 69 71 72 73 73 72 73 73 73 73 73 69 70 72 74 75 74 74 74 73 74 74 73 72
57 53 54 52 53 52 48 49 49 51 51 51 52 53 53 53 53 53 54 60 59 61 64 65 66 68 70 71 73 73 72 72 73 73 73 73 70 71 73 73 73 71 73 71 74 73 72 73 72
55 54 52 52 53 56 52 54 54 52 52 54 54 53 53 52 52 52 52 53 56 60 62 64 66 67 69 70 72 71 71 71 73 73 73 71 71 71 70 72 71 70 72 71 72 73 72 72 71
49 49 50 50 54 53 50 50 55 54 52 53 53 53 53 52 53 52 53 54 57 59 59 63 66 66 70 70 70 70 70 70 69 71 69 70 68 69 71 71 73 72 72 71 71 72 72 70 68
47 49 48 50 52 57 55 54 53 54 52 51 52 52 52 52 52 52 53 54 55 56 58 62 66 67 65 67 65 66 65 65 69 68 68 68 70 70 70 72 71 71 71 71 71 71 72 71 71
46 49 50 51 51 52 54 53 50 53 54 49 50 50 51 51 51 51 53 54 55 56 61 62 65 67 64 69 67 66 66 62 66 69 69 68 67 70 72 71 71 72 73 73 72 69 69 70 71
42 50 51 50 52 53 52 49 54 54 54 48 48 49 50 50 50 51 52 52 54 59 62 62 63 66 66 70 69 68 69 67 69 70 70 70 70 73 73 73 72 73 72 72 72 70 69 70 71
45 41 46 46 52 49 52 54 55 58 52 47 47 48 49 49 50 51 51 52 54 60 61 61 62 65 67 71 71 71 71 68 69 70 71 72 73 73 73 73 74 73 72 72 72 71 69 69 70
36 40 38 40 51 52 53 55 50 53 55 51 47 48 50 50 52 52 51 51 57 60 60 60 63 64 66 71 70 70 70 69 71 71 69 72 75 75 74 74 74 74 72 71 71 70 70 70 70
34 36 37 37 50 50 50 50 52 52 55 55 48 49 51 51 52 52 51 52 57 60 63 62 67 66 70 69 67 68 69 69 70 71 70 68 73 74 73 74 74 73 72 72 71 70 70 70 70
34 32 29 32 35 46 50 51 52 55 55 55 51 49 49 50 51 51 52 53 59 60 63 65 68 68 70 69 69 69 69 70 71 70 71 70 66 70 74 74 73 72 72 71 71 70 70 70 71
23 25 31 31 31 34 46 47 51 51 53 53 53 51 50 50 51 51 53 53 59 61 63 66 69 69 69 69 70 71 72 72 70 68 68 66 66 68 75 74 73 72 73 71 71 71 70 69 70
20 24 27 27 27 28 35 39 47 49 50 52 54 53 52 50 51 52 54 54 59 62 64 66 69 69 68 70 70 68 68 68 70 70 70 69 67 69 74 74 73 73 73 72 72 73 71 71 68
10 23 26 29 23 33 35 38 41 49 49 51 51 54 53 54 52 52 52 55 59 63 65 67 70 69 68 69 70 71 70 69 72 72 70 69 68 69 73 72 72 71 73 72 72 72 71 71 70
13 14 22 22 26 34 35 37 40 44 46 50 50 51 53 58 58 54 52 54 59 64 66 67 70 70 70 70 71 71 72 69 72 73 70 70 73 74 73 73 71 71 72 72 72 72 70 69 68
11 20 20 27 39 40 35 35 35 38 44 49 50 51 53 54 58 59 53 53 58 62 65 68 69 70 72 70 71 71 72 75 71 72 73 74 73 73 73 72 72 71 71 72 70 70 67 68 67
11 28 17 19 38 39 35 31 34 38 40 48 50 51 53 55 53 59 56 54 54 60 64 67 69 69 70 74 72 72 73 74 75 72 73 73 68 72 74 74 72 71 70 70 69 69 68 67 66
11 12 17 14 18 21 30 34 37 38 40 44 48 49 52 53 54 55 58 55 55 59 61 66 69 70 72 70 74 74 74 74 73 73 73 72 73 73 74 74 71 70 71 68 69 67 67 66 63
12 11 5 16 23 22 33 36 40 43 42 43 47 48 50 53 54 55 56 60 58 59 58 64 68 70 72 72 72 74 75 74 74 74 74 73 74 74 74 71 71 71 69 69 69 67 63 63 62
11 15 15 8 17 17 32 34 45 44 44 44 45 48 50 52 52 55 55 58 58 58 58 62 68 70 71 72 73 73 75 76 75 76 75 74 75 74 74 72 71 70 70 70 69 67 64 62 60
14 12 8 12 9 19 25 33 40 44 47 49 50 48 50 51 53 55 56 57 55 55 57 62 68 69 70 71 73 74 74 75 75 74 75 76 76 74 73 72 71 71 71 70 66 64 64 60 58
Lifted_Index
-5 -5 -5 -4 -3 -2 -2 -2 -2 -2 -2 -2 -1 -2 -2 -1 -1 -2 -2 -2 -2 -3 -3 -4 -4 -3 -3 -3 -3 -3 -2 -2 -2 -2 -2 -2 -2 -2 -2 -2 -2 -3 -3 -3 -3 -3 -3 -3 -3
-5 -5 -4 -4 -2 -2 -1 -1 -1 -2 -2 -2 -1 -2 -2 -2 -2 -2 -3 -3 -3 -3 -3 -4 -4 -4 -3 -3 -3 -3 -2 -2 -2 -2 -2 -2 -2 -2 -2 -2 -2 -2 -3 -3 -3 -3 -3 -3 -3
-5 -5 -4 -3 -2 -1 -1 -1 -1 -2 -2 -1 -1 -2 -2 -2 -2 -3 -3 -3 -3 -3 -3 -4 -4 -4 -3 -3 -3 -3 -2 -2 -2 -2 -2 -2 -2 -2 -2 -2 -2 -2 -2 -3 -3 -3 -3 -3 -3
-5 -4 -3 -2 -2 -2 -1 -1 -1 -2 -2 -1 -1 -2 -2 -3 -3 -3 -3 -3 -3 -3 -4 -4 -5 -4 -4 -3 -3 -3 -3 -2 -2 -2 -2 -2 -2 -1 -2 -2 -2 -2 -2 -2 -2 -3 -3 -3 -3
-3 -2 -2 -2 -1 -2 -2 -1 -1 -1 -1 -1 -2 -2 -2 -3 -3 -3 -3 -4 -4 -4 -4 -5 -5 -4 -4 -3 -3 -3 -3 -3 -2 -2 -2 -2 -1 -1 -1 -2 -2 -2 -2 -3 -3 -3 -3 -3 -3
-2 -2 -2 -2 -1 -2 -2 -1 -1 -1 -1 -1 -2 -2 -2 -2 -3 -3 -3 -4 -4 -4 -5 -5 -5 -5 -4 -4 -4 -3 -3 -3 -2 -2 -2 -2 -2 -2 -2 -2 -2 -2 -3 -3 -3 -3 -3 -3 -3
-1 -2 -2 -1 -2 -2 -1 -1 -1 -1 -1 -1 -1 -1 -1 -2 -2 -3 -3 -3 -3 -4 -4 -5 -5 -5 -4 -4 -4 -3 -3 -3 -3 -2 -2 -3 -3 -3 -3 -3 -3 -3 -3 -3 -3 -3 -3 -3 -3
-1 -2 -2 -2 -2 -2 -1 -1 -0 -1 -1 -1 -1 -1 -1 -2 -2 -2 -2 -2 -3 -3 -3 -4 -4 -4 -4 -4 -4 -3 -3 -3 -3 -3 -3 -3 -3 -2 -3 -3 -3 -3 -3 -3 -3 -3 -3 -3 -3
-1 -2 -2 -2 -2 -2 -2 -1 -0 -1 -1 -1 -1 -1 -1 -1 -2 -2 -2 -2 -2 -3 -3 -3 -4 -4 -4 -4 -4 -3 -3 -3 -3 -3 -3 -2 -2 -2 -2 -2 -3 -3 -3 -3 -3 -3 -3 -3 -3
-2 -2 -2 -2 -2 -2 -2 -1 -0 -0 -1 -1 -1 -1 -1 -1 -1 -1 -1 -2 -2 -2 -2 -3 -3 -3 -4 -4 -4 -3 -3 -3 -3 -3 -3 -2 -1 -1 -1 -2 -3 -3 -3 -3 -3 -3 -3 -3 -3
-2 -2 -2 -2 -2 -2 -2 -1 -1 -1 -1 -1 -1 -1 -0 -0 -1 -1 -1 -1 -1 -1 -2 -2 -2 -3 -3 -4 -4 -3 -3 -3 -3 -3 -3 -2 -1 -1 -2 -2 -2 -2 -2 -2 -3 -3 -3 -3 -3
-2 -2 -2 -3 -3 -3 -2 -1 -1 -1 -1 -1 -1 -0 -0 -0 -0 0 0 0 -0 -1 -1 -2 -2 -3 -3 -3 -3 -3 -3 -2 -3 -3 -3 -2 -2 -2 -2 -2 -2 -2 -2 -2 -2 -2 -2 -2 -2
-2 -2 -2 -2 -3 -3 -2 -2 -2 -2 -1 -1 -0 -0 0 0 0 0 0 0 0 -0 -1 -1 -2 -2 -3 -3 -3 -2 -2 -2 -2 -2 -2 -2 -2 -2 -2 -2 -2 -2 -2 -2 -2 -2 -2 -2 -2
-1 -1 -1 -2 -2 -3 -2 -2 -2 -2 -1 -1 -0 0 1 1 1 1 0 0 0 0 -0 -1 -1 -2 -2 -2 -1 -1 -1 -1 -2 -2 -1 -1 -2 -2 -2 -2 -2 -2 -2 -2 -1 -1 -1 -1 -1
-0 -1 -1 -1 -2 -2 -2 -1 -2 -2 -1 -0 0 1 1 1 1 1 1 1 1 0 0 -0 -1 -1 -1 -1 -1 -1 -1 -1 -1 -2 -1 -1 -2 -2 -3 -3 -3 -3 -2 -2 -1 -1 -1 -1 -2
-0 -1 -1 -1 -2 -2 -2 -1 -2 -2 -1 0 1 1 1 2 2 1 1 1 1 1 1 0 -0 -0 -1 -2 -2 -1 -1 -1 -2 -2 -2 -2 -3 -3 -4 -3 -3 -3 -3 -2 -1 -1 -1 -1 -2
-0 -1 -1 -1 -2 -2 -2 -1 -2 -2 -1 0 1 1 1 1 1 2 2 2 1 1 1 1 0 -0 -1 -2 -3 -3 -3 -3 -3 -3 -3 -4 -4 -4 -4 -4 -4 -4 -3 -2 -2 -1 -1 -1 -2
0 -0 -1 -2 -2 -2 -2 -1 -1 -1 -1 -0 0 1 1 1 1 1 2 2 1 1 1 1 0 -0 -1 -3 -3 -3 -3 -3 -3 -4 -4 -4 -5 -5 -5 -5 -5 -4 -3 -2 -2 -1 -1 -1 -2
0 -0 -1 -2 -2 -2 -2 -1 -1 -1 -1 -1 -0 0 0 1 1 1 1 1 1 1 1 0 -1 -1 -2 -2 -2 -3 -3 -4 -4 -4 -4 -4 -5 -5 -5 -5 -5 -4 -3 -3 -2 -2 -2 -2 -2
0 -1 -1 -1 -1 -1 -2 -1 -2 -2 -2 -2 -1 -0 0 1 1 1 1 1 1 0 -0 -1 -2 -2 -2 -2 -2 -3 -4 -4 -4 -4 -3 -4 -4 -5 -5 -5 -4 -4 -3 -3 -3 -3 -3 -3 -3
-0 -1 -1 -1 -0 -1 -2 -2 -2 -2 -2 -2 -2 -1 -0 0 1 1 1 0 0 -0 -1 -2 -2 -3 -3 -3 -3 -4 -4 -5 -4 -3 -2 -2 -3 -5 -6 -6 -5 -4 -4 -3 -3 -3 -3 -3 -3
0 -0 -0 0 0 -0 -1 -1 -1 -2 -2 -3 -2 -2 -1 -0 0 1 1 0 -1 -1 -1 -2 -3 -3 -3 -3 -4 -4 -5 -5 -4 -3 -2 -2 -4 -5 -6 -6 -5 -4 -4 -4 -4 -4 -4 -4 -4
2 1 1 1 0 -0 -0 -0 -1 -2 -2 -3 -2 -2 -2 -1 -0 0 0 -0 -1 -1 -2 -2 -3 -3 -3 -3 -4 -4 -5 -5 -5 -5 -4 -4 -4 -5 -6 -6 -5 -5 -5 -4 -4 -4 -4 -4 -3
2 2 1 1 0 0 0 0 -0 -1 -2 -2 -2 -2 -2 -2 -1 -1 -1 -1 -1 -2 -3 -3 -4 -4 -4 -3 -4 -5 -5 -5 -5 -5 -5 -5 -5 -6 -6 -5 -5 -5 -5 -5 -4 -4 -3 -3 -2
3 2 1 0 -0 -0 0 0 -0 -1 -1 -2 -2 -2 -2 -2 -2 -2 -1 -1 -2 -3 -3 -4 -4 -4 -5 -4 -4 -4 -5 -6 -6 -6 -6 -5 -5 -5 -5 -5 -5 -5 -5 -4 -4 -3 -3 -2 -1
2 2 1 0 -0 -0 -0 -0 -0 0 -0 -1 -2 -2 -2 -2 -2 -2 -2 -2 -2 -3 -4 -4 -5 -5 -5 -5 -5 -5 -5 -6 -6 -6 -6 -6 -4 -4 -5 -5 -5 -5 -4 -4 -3 -3 -2 -2 -1
2 2 1 0 -0 -1 -1 -1 -0 -0 -0 -1 -1 -1 -2 -2 -2 -2 -2 -2 -2 -2 -3 -4 -5 -5 -6 -6 -6 -6 -6 -6 -6 -7 -6 -6 -5 -4 -5 -5 -5 -4 -4 -3 -3 -3 -2 -1 -0
1 1 1 0 -0 -0 -1 -1 -1 -1 -1 -1 -1 -1 -1 -2 -2 -2 -2 -2 -2 -2 -2 -4 -5 -6 -6 -6 -6 -7 -7 -7 -7 -7 -7 -6 -6 -5 -5 -5 -4 -4 -3 -3 -3 -2 -1 -0 1
1 1 1 1 0 -0 -1 -0 -0 -1 -1 -1 -1 -1 -1 -2 -2 -2 -2 -2 -2 -2 -2 -3 -5 -6 -6 -7 -7 -7 -7 -7 -7 -7 -7 -7 -6 -6 -5 -5 -4 -4 -3 -3 -3 -2 -1 1 2
0 0 1 0 0 -0 -0 -0 0 -0 -1 -2 -2 -1 -2 -2 -2 -3 -3 -3 -3 -2 -2 -3 -5 -6 -6 -7 -7 -7 -8 -8 -8 -7 -7 -7 -7 -6 -5 -5 -4 -4 -3 -3 -3 -2 -1 1 3